DW8722 Weather Reports


time (UTC)temp
C
wind
direction
speed
KPH
gust
KPH
rain 1hr
cm
rain 24hr
cm
rain mn
cm
humidity
%
barometer
mb
20260906223912 36 128 8.0 19.3 0.00 0.00 0.00 43 1009.9
20260906222912 36 177 8.0 19.3 0.00 0.00 0.00 42 1009.9
20260906221847 37 168 8.0 19.3 0.00 0.00 0.00 42 1009.8
20260906220829 37 133 4.8 16.1 0.00 0.00 0.00 42 1009.9
20260906215754 37 146 8.0 20.9 0.00 0.00 0.00 41 1009.9
20260906214803 37 92 8.0 20.9 0.00 0.00 0.00 41 1009.7
20260906213825 37 132 4.8 16.1 0.00 0.00 0.00 41 1009.8
20260906211741 37 150 11.3 24.1 0.00 0.00 0.00 40 1010.1
20260906210713 37 192 3.2 19.3 0.00 0.00 0.00 41 1010.1
20260906205702 38 127 8.0 17.7 0.00 0.00 0.00 41 1010.4
20260906204652 38 102 8.0 17.7 0.00 0.00 0.00 42 1010.5
20260906203619 37 71 3.2 16.1 0.00 0.00 0.00 41 1010.7
20260906202545 37 101 6.4 16.1 0.00 0.00 0.00 43 1010.9
20260906201541 37 69 8.0 16.1 0.00 0.00 0.00 43 1011.0
20260906200527 37 104 9.7 22.5 0.00 0.00 0.00 44 1011.0
20260906195522 36 120 8.0 22.5 0.00 0.00 0.00 45 1011.2
20260906194458 36 62 8.0 17.7 0.00 0.00 0.00 44 1011.3
20260906193514 36 162 8.0 16.1 0.00 0.00 0.00 46 1011.4
20260906192527 36 135 0.0 16.1 0.00 0.00 0.00 45 1011.6
20260906191551 36 93 4.8 16.1 0.00 0.00 0.00 45 1011.8
20260906190539 36 123 6.4 16.1 0.00 0.00 0.00 44 1011.9
20260906185550 36 81 4.8 16.1 0.00 0.00 0.00 45 1011.9
20260906184543 36 138 6.4 22.5 0.00 0.00 0.00 45 1011.9
20260906182503 37 86 6.4 20.9 0.00 0.00 0.00 44 1012.3
20260906181457 36 167 6.4 20.9 0.00 0.00 0.00 44 1012.4
20260906180500 36 125 6.4 22.5 0.00 0.00 0.00 45 1012.6
20260906175502 36 151 9.7 22.5 0.00 0.00 0.00 45 1012.8
20260906174505 36 123 11.3 20.9 0.00 0.00 0.00 46 1013.0
20260906173509 36 138 11.3 24.1 0.00 0.00 0.00 46 1013.0
20260906170238 35 108 6.4 17.7 0.00 0.00 0.00 50 1013.3
20260906165253 35 80 8.0 17.7 0.00 0.00 0.00 51 1013.4
20260906164304 34 152 6.4 17.7 0.00 0.00 0.00 53 1013.4
20260906163234 33 153 3.2 14.5 0.00 0.00 0.00 55 1013.5
20260906162215 33 109 3.2 14.5 0.00 0.00 0.00 57 1013.5
20260906161159 33 94 3.2 12.9 0.00 0.00 0.00 57 1013.4
20260906160205 32 87 3.2 11.3 0.00 0.00 0.00 57 1013.4
20260906155144 32 118 3.2 9.7 0.00 0.00 0.00 60 1013.4
20260906154127 31 84 1.6 9.7 0.00 0.00 0.00 61 1013.4
20260906153103 31 111 1.6 9.7 0.00 0.00 0.00 64 1013.3
20260906152100 31 100 1.6 0.0 0.00 0.00 0.00 66 1013.3
20260906151036 30 135 0.0 6.4 0.00 0.00 0.00 68 1013.2
20260906150051 30 122 0.0 0.0 0.00 0.00 0.00 73 1013.4
20260906145046 29 132 0.0 0.0 0.00 0.00 0.00 75 1013.3
20260906144058 28 135 0.0 3.2 0.00 0.00 0.00 79 1013.2
20260906143057 28 90 0.0 3.2 0.00 0.00 0.00 82 1013.4
20260906142022 27 35 0.0 3.2 0.00 0.00 0.00 84 1013.4
20260906135813 26 63 0.0 0.0 0.00 0.00 0.00 87 1013.6
20260906133720 25 90 0.0 4.8 0.00 0.00 0.00 90 1013.6
20260906131519 24 98 0.0 0.0 0.00 0.00 0.00 90 1013.6
20260906130528 23 99 0.0 0.0 0.00 0.00 0.00 90 1013.6
20260906125545 23 99 0.0 0.0 0.00 0.00 0.00 91 1013.5
20260906124519 23 99 0.0 0.0 0.00 0.00 0.00 91 1013.2
20260906123539 23 107 0.0 0.0 0.00 0.00 0.00 91 1013.2
20260906122550 23 107 0.0 0.0 0.00 0.00 0.00 90 1013.1
20260906121547 22 107 0.0 0.0 0.00 0.00 0.00 90 1013.0
20260906120540 23 109 0.0 0.0 0.00 0.00 0.00 90 1012.9
20260906114428 23 142 0.0 0.0 0.00 0.00 0.00 90 1012.7
20260906113412 23 142 0.0 0.0 0.00 0.00 0.00 90 1012.8
20260906112400 23 142 0.0 0.0 0.00 0.00 0.00 90 1012.7
20260906105139 23 142 0.0 0.0 0.00 0.00 0.00 90 1012.2
20260906104136 23 142 0.0 0.0 0.00 0.00 0.00 89 1012.2
20260906103123 23 142 0.0 0.0 0.00 0.00 0.00 89 1012.1
20260906102051 23 144 0.0 0.0 0.00 0.00 0.00 89 1012.1
20260906101031 23 146 0.0 0.0 0.00 0.00 0.00 89 1012.1
20260906094841 23 146 0.0 0.0 0.00 0.00 0.00 88 1012.0
20260906093819 23 146 0.0 0.0 0.00 0.00 0.00 87 1012.0
20260906092809 23 146 0.0 0.0 0.00 0.00 0.00 87 1011.8
20260906090558 23 146 0.0 0.0 0.00 0.00 0.00 86 1011.8
20260906085622 24 146 0.0 0.0 0.00 0.00 0.00 86 1011.7
20260906083444 24 146 0.0 0.0 0.00 0.00 0.00 86 1011.6
20260906081315 24 148 0.0 1.6 0.00 0.00 0.00 85 1011.6
20260906080339 24 140 0.0 4.8 0.00 0.00 0.00 85 1011.5
20260906074227 25 156 0.0 0.0 0.00 0.00 0.00 83 1011.4
20260906072140 25 156 0.0 0.0 0.00 0.00 0.00 83 1011.6
20260906071139 25 156 0.0 0.0 0.00 0.00 0.00 82 1011.7
20260906070159 25 156 0.0 0.0 0.00 0.00 0.00 83 1011.8
20260906065202 25 156 0.0 0.0 0.00 0.00 0.00 82 1011.9
20260906064202 25 138 0.0 0.0 0.00 0.00 0.00 82 1011.9
20260906063132 25 130 1.6 0.0 0.00 0.00 0.00 81 1011.8
20260906061026 26 141 1.6 6.4 0.00 0.00 0.00 81 1011.8
20260906055954 25 164 1.6 6.4 0.00 0.00 0.00 80 1012.0
20260906053849 26 134 0.0 0.0 0.00 0.00 0.00 79 1012.0
20260906052821 26 134 0.0 0.0 0.00 0.00 0.00 78 1011.9
20260906051834 26 161 0.0 0.0 0.00 0.00 0.00 77 1011.9
20260906050833 26 161 0.0 0.0 0.00 0.00 0.00 76 1011.7
20260906045815 26 161 0.0 0.0 0.00 0.00 0.00 75 1011.6
20260906044816 27 161 0.0 0.0 0.00 0.00 0.00 75 1011.7
20260906043827 27 161 0.0 0.0 0.00 0.00 0.00 74 1011.8
20260906042824 27 161 0.0 6.4 0.00 0.00 0.00 73 1011.8
20260906041802 27 136 1.6 6.4 0.00 0.00 0.00 72 1011.9
20260906040806 27 136 0.0 4.8 0.00 0.00 0.00 71 1012.0
20260906035747 28 165 0.0 1.6 0.00 0.00 0.00 70 1011.8
20260906034731 28 161 1.6 11.3 0.00 0.00 0.00 70 1011.8
20260906033725 28 171 3.2 11.3 0.00 0.00 0.00 70 1011.8
20260906032733 28 173 1.6 4.8 0.00 0.00 0.00 69 1011.7
20260906031751 28 209 0.0 4.8 0.00 0.00 0.00 69 1011.6
20260906024523 29 169 1.6 8.0 0.00 0.00 0.00 68 1011.6
20260906023514 29 171 1.6 9.7 0.00 0.00 0.00 67 1011.5
20260906021350 30 143 3.2 9.7 0.00 0.00 0.00 66 1011.0
20260906020328 30 156 3.2 14.5 0.00 0.00 0.00 65 1010.9
20260906015305 30 179 4.8 14.5 0.00 0.00 0.00 65 1010.9
20260906013145 30 167 4.8 11.3 0.00 0.00 0.00 65 1010.7
20260906011100 31 160 6.4 17.7 0.00 0.00 0.00 63 1010.4
20260906010107 31 125 9.7 25.7 0.00 0.00 0.00 61 1010.3
20260906005128 32 161 12.9 25.7 0.00 0.00 0.00 59 1010.1
20260906004143 33 144 12.9 27.4 0.00 0.00 0.00 54 1010.0
20260906000909 36 157 4.8 14.5 0.00 0.00 0.00 43 1009.8
20260905235854 36 148 4.8 14.5 0.00 0.00 0.00 42 1009.6
20260905234846 37 183 1.6 9.7 0.00 0.00 0.00 41 1009.6
20260905233823 37 123 1.6 0.0 0.00 0.00 0.00 40 1009.5
20260905232824 37 146 4.8 9.7 0.00 0.00 0.00 41 1009.5
20260905231823 37 94 1.6 4.8 0.00 0.00 0.00 41 1009.5
20260905230802 37 137 0.0 3.2 0.00 0.00 0.00 41 1009.6
20260905225814 37 67 0.0 0.0 0.00 0.00 0.00 40 1009.5
20260905224821 37 72 1.6 8.0 0.00 0.00 0.00 40 1009.5